[[{"header":{"parameterUnit":"m.s-1","parameterCategory":1,"la1":30.2991,"la2":30.254,"lo1":-89.0895,"lo2":-89.0444,"dy":0.0017,"dx":0.0017,"nx":28,"ny":28,"refTime":"2023-07-22T21:00:00:Z","depth":0,"parameterNumber":2,"parameterNumberName":"U-component_of_WINDS"},"data":[0,0,0,0,0,0,0,0,0,0,0,0,0,0,0,0,0,0,0,0,0,0,0,0,0,0,0,0,0,0,0,0,0,0,0,0,0,0,0,0,0,0,0,0,0,0,0,0,0,0,0,0,0,0,0,0,0,0,1.739,1.7391,0,1.7519,1.752,1.7522,1.7522,1.752,1.7519,1.7517,1.7651,1.7656,1.7662,0,0,0,0,0,0,0,0,0,0,0,0,0,1.7144,1.7149,1.7389,1.7391,1.7393,1.7519,1.7521,1.7522,1.7522,1.752,1.7518,1.7516,1.765,1.7656,1.7662,0,0,0,0,0,0,0,0,0,0,0,0,0,1.726,1.715,1.7389,1.7408,1.7411,1.7518,1.7521,1.7523,1.7523,1.752,1.7518,1.7515,1.7648,1.7655,1.7663,1.7761,0,0,1.7686,1.769,0,0,0,0,0,0,0,0,1.7254,1.7269,1.7403,1.7407,1.741,1.7502,1.7484,1.7603,1.7523,1.748,1.7517,1.7514,1.7604,1.7615,1.7645,1.7768,1.7773,1.7687,1.7692,1.7695,1.7697,0,0,0,0,0,0,0,1.7246,1.7264,1.7441,1.7405,1.741,1.741,1.7424,1.7506,1.7555,1.7484,1.7484,1.7499,1.7605,1.7637,1.7648,1.7775,1.7687,1.7694,1.7699,1.7702,1.7987,1.7989,0,0,0,0,0,0,1.7233,1.7257,1.7437,1.7445,1.7324,1.7417,1.7432,1.7475,1.7554,1.7563,1.7501,1.7499,1.7625,1.7639,1.7653,1.7773,1.7695,1.7702,1.7707,1.7984,1.7987,1.799,0,0,0,0,0,0,1.7228,1.7249,1.7431,1.7351,1.7374,1.7424,1.7472,1.7479,1.7511,1.7567,1.7576,1.7525,1.7624,1.7642,1.7734,1.7778,1.7706,1.7713,1.798,1.7985,1.7989,1.8015,0,0,0,0,0,0,1.7221,1.7248,1.7285,1.7352,1.7378,1.751,1.7474,1.7483,1.7524,1.7522,1.7592,1.7601,1.7623,1.7723,1.7742,1.7787,1.7719,1.7976,1.7982,1.7987,1.801,1.802,1.8028,0,0,0,0,0,1.7212,1.7287,1.7286,1.7308,1.7426,1.7512,1.7528,1.7551,1.7528,1.7566,1.7602,1.7599,1.777,1.7732,1.7754,1.7802,1.7974,1.7981,1.7987,1.8006,1.8018,1.8027,0,0,0,0,0,0,1.7224,1.7296,1.7296,1.7395,1.7447,1.7512,1.7561,1.7563,1.7624,1.7619,1.7647,1.7663,1.7755,1.7788,1.7744,1.7902,1.7869,1.7881,1.7877,1.7888,1.7896,1.7886,1.7725,0,0,0,0,0,1.7238,1.7301,1.7361,1.7442,1.7469,1.751,1.7549,1.7563,1.7619,1.7641,1.7684,1.7739,1.7806,1.7849,1.7913,1.8016,1.8031,1.806,1.8069,1.8075,1.8084,1.8142,1.8155,1.8012,1.8012,1.8012,0,0,1.7267,1.7314,1.7353,1.7446,1.7488,1.7554,1.7529,1.76,1.7649,1.7652,1.7742,1.7776,1.7839,1.7937,1.7983,1.7968,1.8128,1.8084,1.8089,1.8094,1.815,1.8163,1.8175,1.8016,1.8016,1.8015,0,0,1.7354,1.7396,1.7468,1.7512,1.7577,1.7604,1.7621,1.7687,1.7709,1.78,1.7804,1.7864,1.7977,1.8023,1.8061,1.8167,1.8166,1.8188,1.8232,1.8288,1.8299,1.8309,1.8347,1.836,1.8197,1.8197,1.8197,0,1.7382,1.7481,1.7505,1.7577,1.7618,1.7624,1.7698,1.7739,1.7822,1.7851,1.7833,1.7976,1.802,1.8129,1.8155,1.8185,1.8207,1.8179,1.8295,1.8306,1.8316,1.8352,1.8366,1.8199,1.8199,1.8198,1.8198,0,1.7512,1.7581,1.7632,1.7711,1.7759,1.7831,1.7867,1.7913,1.7923,1.7953,1.8046,1.8098,1.8174,1.8201,1.8212,1.8312,1.8301,1.8289,1.8256,1.8331,1.8366,1.838,1.8202,1.8201,1.82,1.82,0,0,1.7608,1.7701,1.7719,1.7756,1.7829,1.7883,1.7956,1.803,1.8068,1.8126,1.8188,1.8285,1.8275,1.8318,1.8335,1.8384,1.8465,1.8366,1.8368,1.8382,1.8579,1.8587,1.8603,1.8466,1.8469,1.8471,1.8574,0,1.7702,1.7831,1.7856,1.7969,1.8033,1.8041,1.8105,1.8158,1.8188,1.8248,1.8282,1.835,1.8332,1.8358,1.8407,1.8445,1.8505,1.8438,1.8525,1.8528,1.8507,1.8621,1.8629,1.8723,1.8588,1.859,1.8592,0,1.7828,1.7888,1.8007,1.8073,1.8101,1.8158,1.8228,1.8285,1.8345,1.8364,1.8413,1.8425,1.8503,1.8468,1.8576,1.853,1.8567,1.8592,1.8596,1.8604,1.8563,1.8631,1.8754,1.8768,1.8613,1.8612,1.861,0,1.7885,1.7996,1.8082,1.8113,1.8192,1.8232,1.8267,1.8324,1.8367,1.8429,1.8458,1.8528,1.8566,1.8621,1.8652,1.8624,1.8759,1.8726,1.8777,1.8776,1.8803,1.8801,1.8933,1.8829,1.8829,1.8829,1.8829,0,1.7986,1.8059,1.8109,1.8161,1.8243,1.8273,1.8353,1.8388,1.844,1.85,1.8512,1.8569,1.8607,1.8669,1.8694,1.878,1.8798,1.8816,1.8821,1.8814,1.8812,1.8838,1.8832,1.8833,1.8832,1.8831,1.883,0,1.8063,1.8099,1.8193,1.826,1.8279,1.8336,1.8395,1.8447,1.8478,1.8554,1.8574,1.8624,1.8698,1.8735,1.8827,1.8845,1.8942,1.8944,1.8921,1.8923,1.8972,1.8966,1.9124,1.9147,1.9029,1.903,1.9031,0,1.8124,1.818,1.8254,1.8295,1.833,1.8396,1.8441,1.8473,1.8518,1.8592,1.8636,1.8711,1.8772,1.8891,1.8936,1.9007,1.9011,1.9061,1.9021,1.9013,1.9011,1.9007,1.9013,1.9068,1.9069,1.907,1.907,0,1.823,1.8245,1.8308,1.8378,1.843,1.8487,1.8542,1.8576,1.8617,1.8668,1.8744,1.8792,1.8887,1.8961,1.9036,1.9073,1.9079,1.9083,1.9098,1.9091,1.9075,1.9084,1.8939,1.9079,1.9078,1.9077,1.9077,1.9076,1.83,1.8351,1.841,1.848,1.8526,1.8578,1.8631,1.8669,1.8733,1.8812,1.8828,1.8908,1.8969,1.9071,1.9111,1.9175,1.9164,1.9186,1.9192,1.9197,1.9199,1.9066,1.9189,1.9189,1.9189,1.9188,1.9188,0,1.8406,1.8445,1.8509,1.8587,1.8643,1.8644,1.8706,1.8752,1.8823,1.8879,1.894,1.9028,1.9101,1.9152,1.9227,1.9269,1.9273,1.9287,1.9284,1.9293,1.9205,1.9184,1.9282,1.9282,1.9282,1.9282,1.9282,1.9282,1.8467,1.8552,1.8576,1.8684,1.8724,1.8802,1.8838,1.8887,1.8932,1.9029,1.909,1.9123,1.9178,1.9257,1.9324,1.9338,1.9365,1.9378,1.9392,1.9308,1.9299,1.9289,1.9269,1.9384,1.9384,1.9474,1.9475,1.9476]},{"header":{"parameterUnit":"m.s-1","parameterCategory":1,"la1":30.2991,"la2":30.254,"lo1":-89.0895,"lo2":-89.0444,"dy":0.0017,"dx":0.0017,"nx":28,"ny":28,"refTime":"2023-07-22T21:00:00:Z","depth":0,"parameterNumber":3,"parameterNumberName":"V-component_of_WINDS"},"data":[0,0,0,0,0,0,0,0,0,0,0,0,0,0,0,0,0,0,0,0,0,0,0,0,0,0,0,0,0,0,0,0,0,0,0,0,0,0,0,0,0,0,0,0,0,0,0,0,0,0,0,0,0,0,0,0,0,0,1.5571,1.5572,0,1.5669,1.567,1.5671,1.5652,1.565,1.5649,1.5647,1.5749,1.5753,1.5758,0,0,0,0,0,0,0,0,0,0,0,0,0,1.5367,1.5371,1.557,1.5572,1.5573,1.5669,1.567,1.5672,1.5652,1.565,1.5648,1.5646,1.5748,1.5753,1.5758,0,0,0,0,0,0,0,0,0,0,0,0,0,1.5459,1.5372,1.557,1.5575,1.5576,1.5669,1.567,1.5672,1.5653,1.565,1.5647,1.5645,1.5746,1.5752,1.5759,1.5853,0,0,1.5779,1.5782,0,0,0,0,0,0,0,0,1.5454,1.5467,1.5573,1.5575,1.5576,1.5645,1.5636,1.5733,1.5654,1.5624,1.5647,1.5644,1.5717,1.5726,1.575,1.5858,1.5863,1.578,1.5784,1.5787,1.5788,0,0,0,0,0,0,0,1.5448,1.5462,1.5609,1.5574,1.5577,1.5572,1.5583,1.5654,1.5684,1.5626,1.5625,1.5637,1.5717,1.5744,1.5752,1.5864,1.578,1.5785,1.5789,1.5792,1.6056,1.6059,0,0,0,0,0,0,1.5439,1.5457,1.5606,1.5612,1.5507,1.5578,1.559,1.5626,1.5683,1.569,1.5639,1.5636,1.5734,1.5745,1.5756,1.5872,1.5786,1.5793,1.5796,1.6053,1.6057,1.606,0,0,0,0,0,0,1.5435,1.5453,1.5602,1.5535,1.5553,1.5585,1.5626,1.5629,1.5656,1.5693,1.5699,1.5661,1.5732,1.5747,1.583,1.5875,1.5796,1.5802,1.6049,1.6054,1.6058,1.6104,0,0,0,0,0,0,1.5429,1.5452,1.5488,1.5536,1.5557,1.5674,1.5628,1.5633,1.5667,1.5664,1.5715,1.5721,1.5731,1.582,1.5836,1.5883,1.5807,1.6045,1.6051,1.6057,1.6098,1.6109,1.6119,0,0,0,0,0,1.5422,1.5496,1.5489,1.5508,1.5603,1.5677,1.5689,1.5699,1.5671,1.5708,1.5732,1.5719,1.5867,1.5828,1.5847,1.5896,1.6043,1.605,1.6056,1.6094,1.6107,1.6119,0,0,0,0,0,0,1.5454,1.5503,1.5496,1.5587,1.5628,1.5673,1.572,1.5713,1.5763,1.5758,1.5768,1.578,1.5865,1.5888,1.5844,1.5991,1.5951,1.5962,1.5973,1.5986,1.5996,1.599,1.5812,0,0,0,0,0,1.5471,1.5527,1.5567,1.5644,1.5665,1.5689,1.5722,1.5726,1.5768,1.5786,1.5816,1.5858,1.5914,1.5951,1.6004,1.6101,1.6113,1.6144,1.6154,1.6162,1.6172,1.6227,1.6241,1.6082,1.6082,1.6082,0,0,1.5508,1.5542,1.5576,1.5651,1.5683,1.5741,1.5704,1.5766,1.581,1.5795,1.5876,1.5899,1.5947,1.6038,1.6079,1.606,1.6218,1.6171,1.6177,1.6183,1.6235,1.625,1.6264,1.6087,1.6086,1.6086,0,0,1.5606,1.5636,1.5705,1.5737,1.5786,1.5801,1.5818,1.5864,1.5879,1.596,1.595,1.6002,1.6098,1.6133,1.6164,1.6274,1.6265,1.6291,1.6345,1.6398,1.6411,1.6422,1.6464,1.6478,1.63,1.6301,1.6301,0,1.5646,1.5733,1.5741,1.5805,1.5839,1.5827,1.5897,1.5928,1.5992,1.6016,1.5993,1.6114,1.6146,1.6245,1.6272,1.6296,1.6316,1.6287,1.6408,1.642,1.643,1.647,1.6486,1.6304,1.6303,1.6303,1.6303,0,1.5781,1.5842,1.5891,1.5953,1.5992,1.6059,1.6077,1.6116,1.6116,1.6134,1.6217,1.6254,1.6316,1.6339,1.634,1.6439,1.6426,1.6405,1.6366,1.6448,1.6486,1.6501,1.6308,1.6307,1.6306,1.6305,0,0,1.5904,1.5968,1.5987,1.6015,1.6067,1.6115,1.6181,1.6241,1.6275,1.6318,1.6376,1.6457,1.6439,1.6473,1.6478,1.6524,1.6612,1.6498,1.65,1.652,1.6726,1.6743,1.676,1.6605,1.6608,1.661,1.6722,0,1.6008,1.6125,1.6134,1.624,1.6297,1.6286,1.6344,1.6383,1.6401,1.6453,1.6473,1.6531,1.6501,1.6523,1.6567,1.6592,1.6654,1.6583,1.666,1.6663,1.6651,1.6779,1.6797,1.6902,1.6737,1.6739,1.6741,0,1.6146,1.6195,1.6307,1.6352,1.6376,1.6428,1.6484,1.6532,1.6576,1.6586,1.6625,1.6623,1.6692,1.6648,1.6744,1.6696,1.6728,1.6744,1.6749,1.6759,1.6709,1.6795,1.6935,1.6952,1.6764,1.6762,1.6761,0,1.6228,1.632,1.6399,1.6424,1.6478,1.6515,1.6539,1.658,1.6616,1.6665,1.6688,1.6744,1.6776,1.6819,1.6833,1.6799,1.693,1.6886,1.6942,1.6942,1.6972,1.6971,1.7122,1.6988,1.6988,1.6987,1.6987,0,1.6345,1.6415,1.6437,1.6486,1.6564,1.6572,1.6649,1.6671,1.6708,1.6762,1.6755,1.6806,1.682,1.6873,1.6884,1.6964,1.6977,1.6989,1.6991,1.6991,1.699,1.7014,1.7008,1.6992,1.6991,1.699,1.6989,0,1.645,1.6468,1.6554,1.6598,1.661,1.6666,1.6704,1.6752,1.6768,1.6836,1.6853,1.688,1.6943,1.696,1.7035,1.7042,1.7137,1.7131,1.7122,1.7123,1.7179,1.7175,1.7353,1.7378,1.7225,1.7226,1.7228,0,1.6526,1.6579,1.6628,1.6664,1.669,1.6747,1.6783,1.6793,1.6831,1.6886,1.6927,1.6989,1.7039,1.714,1.7167,1.7224,1.7222,1.728,1.7231,1.7229,1.7226,1.7224,1.723,1.7291,1.7292,1.7294,1.7295,0,1.6659,1.6665,1.6717,1.6773,1.6816,1.686,1.6903,1.6932,1.6949,1.6992,1.7056,1.7095,1.7171,1.7234,1.7292,1.7317,1.731,1.731,1.7326,1.7328,1.7322,1.7329,1.7151,1.7306,1.7305,1.7304,1.7304,1.7303,1.6753,1.6801,1.6843,1.6902,1.6935,1.6975,1.7022,1.7045,1.7098,1.7161,1.7163,1.7234,1.7277,1.7354,1.7383,1.7438,1.7421,1.7444,1.7451,1.7457,1.7463,1.731,1.7448,1.7448,1.7448,1.7448,1.7447,0,1.6888,1.6915,1.6968,1.7028,1.7075,1.7062,1.7108,1.7148,1.721,1.725,1.73,1.7374,1.7434,1.7465,1.7524,1.7563,1.7561,1.7579,1.7578,1.7584,1.7474,1.7455,1.7579,1.7579,1.7579,1.7579,1.7579,1.7579,1.6964,1.7044,1.7055,1.7152,1.7178,1.7246,1.7274,1.7311,1.7344,1.7427,1.7477,1.7496,1.7533,1.7595,1.765,1.7658,1.7682,1.7702,1.7708,1.7605,1.7592,1.7579,1.7561,1.7706,1.7706,1.7814,1.7815,1.7816]}]]